Oak Island, MN

6:27 PM CST on December 03, 2016 (GMT -0600)
Flag Island

Weather History for KFGN - July, 2013

Change the Weather History Date:

Monday, July 29, 2013

  Actual Average Record
Temperature  
Mean Temperature 65 °F -  
Max Temperature 71 °F 71 °F 89 °F (2012)
Min Temperature 59 °F 58 °F 5 °F (1998)
Growing Degree Days 15 (Base 50)    
Moisture  
Dew Point 54 °F    
Average Humidity 63    
Maximum Humidity 77    
Minimum Humidity 52    
Precipitation  
Precipitation 0.00 in - - ()
Sea Level Pressure  
Sea Level Pressure 30.02 in    
Wind  
Wind Speed 6 mph (South)    
Max Wind Speed 13 mph    
Max Gust Speed 17 mph    
Visibility 10 miles    
Events      
Averages and records for this station are not official NWS values.
T = Trace of Precipitation, MM = Missing Value Source: NWS Daily Summary

Daily Weather History Graph

Daily Weather History Graph

Search for Another Location

Airport or City:

Trip Planner

Search our weather history database for the weather conditions in past years. The results will help you decide how hot, cold, wet, or windy it might be!

Date:

Astronomy

Jul. 29, 2013 Rise Set
Actual Time 5:47 AM CDT 9:03 PM CDT
Civil Twilight 5:09 AM CDT 9:41 PM CDT
Nautical Twilight 4:18 AM CDT 10:31 PM CDT
Astronomical Twilight 3:12 AM CDT 11:36 PM CDT
Moon No Moon Rise 2:18 PM CDT (7/29)
Length of Visible Light 16h 32m
Length of Day
15h 15m
Waning Gibbous, 50% of the Moon is Illuminated
Jul 29
Waning Gibbous
Jul 29
Last Quarter
Aug 6
New
Aug 14
First Quarter
Aug 20
Full

Hourly Weather History & Observations

Time (CDT) Temp. Dew Point Humidity Pressure Visibility Wind Dir Wind Speed Gust Speed Precip Events Conditions
12:13 AM 64.4 °F 50.0 °F 59% 30.02 in 10.0 mi SW 5.8 mph - N/A   Clear
12:33 AM 64.4 °F 48.2 °F 56% 30.02 in 10.0 mi SW 6.9 mph - N/A   Clear
12:54 AM 64.4 °F 48.2 °F 56% 30.02 in 10.0 mi SW 6.9 mph - N/A   Clear
1:13 AM 64.4 °F 48.2 °F 56% 30.02 in 10.0 mi SW 5.8 mph - N/A   Clear
1:33 AM 64.4 °F 46.4 °F 52% 30.02 in 10.0 mi SW 8.1 mph - N/A   Clear
1:54 AM 64.4 °F 48.2 °F 56% 30.02 in 10.0 mi WSW 5.8 mph - N/A   Clear
2:13 AM 64.4 °F 50.0 °F 59% 30.02 in 10.0 mi WSW 6.9 mph - N/A   Clear
2:33 AM 60.8 °F 51.8 °F 72% 30.02 in 10.0 mi WSW 5.8 mph - N/A   Clear
2:53 AM 62.6 °F 48.2 °F 59% 30.02 in 10.0 mi SW 6.9 mph - N/A   Clear
3:13 AM 62.6 °F 46.4 °F 55% 30.02 in 10.0 mi SW 5.8 mph - N/A   Clear
3:33 AM 62.6 °F 46.4 °F 55% 30.02 in 10.0 mi SW 5.8 mph - N/A   Clear
3:53 AM 62.6 °F 48.2 °F 59% 30.02 in 10.0 mi SW 6.9 mph - N/A   Clear
4:13 AM 62.6 °F 48.2 °F 59% 30.02 in 10.0 mi SW 5.8 mph - N/A   Clear
4:34 AM 60.8 °F 51.8 °F 72% 30.02 in 10.0 mi SSW 3.5 mph - N/A   Clear
4:53 AM 60.8 °F 51.8 °F 72% 30.02 in 10.0 mi SSW 3.5 mph - N/A   Clear
5:13 AM 60.8 °F 53.6 °F 77% 30.02 in 10.0 mi Calm Calm - N/A   Clear
5:34 AM 60.8 °F 51.8 °F 72% 30.02 in 10.0 mi Calm Calm - N/A   Clear
5:53 AM 60.8 °F 51.8 °F 72% 30.03 in 10.0 mi Calm Calm - N/A   Clear
6:13 AM 59.0 °F 51.8 °F 77% 30.04 in 10.0 mi Calm Calm - N/A   Clear
6:34 AM 59.0 °F 50.0 °F 72% 30.03 in 10.0 mi Calm Calm - N/A   Clear
6:53 AM 60.8 °F 48.2 °F 63% 30.04 in 10.0 mi Calm Calm - N/A   Clear
7:13 AM 60.8 °F 50.0 °F 68% 30.04 in 10.0 mi Calm Calm - N/A   Clear
7:34 AM 60.8 °F 50.0 °F 68% 30.04 in 10.0 mi Calm Calm - N/A   Clear
7:53 AM 60.8 °F 50.0 °F 68% 30.05 in 10.0 mi Calm Calm - N/A   Clear
8:13 AM 60.8 °F 50.0 °F 68% 30.05 in 10.0 mi Calm Calm - N/A   Clear
8:33 AM 62.6 °F 50.0 °F 63% 30.05 in 7.0 mi Calm Calm - N/A   Clear
8:53 AM 62.6 °F 50.0 °F 63% 30.05 in 10.0 mi Calm Calm - N/A   Clear
9:14 AM 64.4 °F 53.6 °F 68% 30.05 in 10.0 mi SSE 3.5 mph - N/A   Clear
9:33 AM 64.4 °F 55.4 °F 73% 30.05 in 10.0 mi SSE 3.5 mph - N/A   Clear
9:53 AM 66.2 °F 57.2 °F 73% 30.05 in 10.0 mi SSE 6.9 mph - N/A   Clear
10:14 AM 66.2 °F 57.2 °F 73% 30.05 in 10.0 mi SSE 8.1 mph - N/A   Clear
10:33 AM 69.8 °F 57.2 °F 64% 30.04 in 10.0 mi South 11.5 mph - N/A   Clear
10:53 AM 69.8 °F 55.4 °F 60% 30.04 in 10.0 mi South 9.2 mph - N/A   Clear
11:14 AM 69.8 °F 53.6 °F 56% 30.04 in 10.0 mi South 9.2 mph - N/A   Clear
11:33 AM 69.8 °F 55.4 °F 60% 30.04 in 10.0 mi SSE 11.5 mph - N/A   Clear
11:53 AM 69.8 °F 55.4 °F 60% 30.04 in 10.0 mi South 10.4 mph - N/A   Clear
12:14 PM 69.8 °F 55.4 °F 60% 30.04 in 10.0 mi SSE 9.2 mph - N/A   Clear
12:33 PM 69.8 °F 55.4 °F 60% 30.03 in 10.0 mi South 10.4 mph - N/A   Clear
12:53 PM 69.8 °F 55.4 °F 60% 30.03 in 10.0 mi South 9.2 mph - N/A   Clear
1:14 PM 69.8 °F 55.4 °F 60% 30.03 in 10.0 mi South 5.8 mph - N/A   Clear
1:33 PM 69.8 °F 51.8 °F 53% 30.03 in 7.0 mi SSW 6.9 mph - N/A   Clear
1:53 PM 71.6 °F 53.6 °F 53% 30.02 in 10.0 mi South 9.2 mph - N/A   Clear
2:13 PM 69.8 °F 55.4 °F 60% 30.02 in 10.0 mi South 10.4 mph - N/A   Clear
2:33 PM 69.8 °F 53.6 °F 56% 30.02 in 10.0 mi SSE 10.4 mph - N/A   Clear
2:53 PM 69.8 °F 53.6 °F 56% 30.02 in 10.0 mi SSE 10.4 mph - N/A   Clear
3:13 PM 69.8 °F 55.4 °F 60% 30.02 in 10.0 mi SSE 9.2 mph - N/A   Clear
3:33 PM 69.8 °F 55.4 °F 60% 30.03 in 10.0 mi SSE 6.9 mph - N/A   Clear
3:53 PM 69.8 °F 55.4 °F 60% 30.03 in 10.0 mi SSE 4.6 mph - N/A   Mostly Cloudy
4:13 PM 69.8 °F 53.6 °F 56% 30.02 in 10.0 mi SSE 4.6 mph - N/A   Scattered Clouds
4:33 PM 69.8 °F 53.6 °F 56% 30.02 in 10.0 mi Calm Calm - N/A   Clear
4:53 PM 69.8 °F 53.6 °F 56% 30.02 in 10.0 mi SE 3.5 mph - N/A   Clear
5:13 PM 69.8 °F 53.6 °F 56% 30.02 in 10.0 mi SE 4.6 mph - N/A   Scattered Clouds
5:33 PM 69.8 °F 53.6 °F 56% 30.02 in 10.0 mi SSE 8.1 mph - N/A   Scattered Clouds
5:53 PM 69.8 °F 53.6 °F 56% 30.02 in 10.0 mi SSE 8.1 mph - N/A   Clear
6:13 PM 69.8 °F 53.6 °F 56% 30.01 in 10.0 mi SSE 8.1 mph - N/A   Clear
6:33 PM 69.8 °F 53.6 °F 56% 30.01 in 10.0 mi SSE 9.2 mph - N/A   Clear
6:53 PM 69.8 °F 55.4 °F 60% 30.01 in 10.0 mi SSE 8.1 mph - N/A   Clear
7:13 PM 69.8 °F 55.4 °F 60% 30.00 in 10.0 mi SSE 9.2 mph - N/A   Clear
7:33 PM 69.8 °F 57.2 °F 64% 30.00 in 10.0 mi SSE 10.4 mph - N/A   Clear
7:53 PM 69.8 °F 57.2 °F 64% 29.99 in 10.0 mi SSE 10.4 mph - N/A   Clear
8:14 PM 69.8 °F 57.2 °F 64% 29.99 in 10.0 mi SSE 10.4 mph - N/A   Clear
8:33 PM 69.8 °F 60.8 °F 73% 29.99 in 10.0 mi SSE 9.2 mph - N/A   Clear
8:53 PM 69.8 °F 59.0 °F 68% 30.00 in 10.0 mi South 9.2 mph - N/A   Clear
9:14 PM 69.8 °F 59.0 °F 68% 29.99 in 10.0 mi South 10.4 mph - N/A   Clear
9:33 PM 69.8 °F 59.0 °F 68% 30.00 in 10.0 mi SSE 9.2 mph - N/A   Clear
9:53 PM 69.8 °F 59.0 °F 68% 30.00 in 10.0 mi SSE 10.4 mph - N/A   Clear
10:14 PM 69.8 °F 59.0 °F 68% 29.99 in 10.0 mi SSE 12.7 mph - N/A   Clear
10:33 PM 69.8 °F 60.8 °F 73% 29.99 in 10.0 mi SSE 12.7 mph - N/A   Clear
10:53 PM 69.8 °F 60.8 °F 73% 29.98 in 10.0 mi South 10.4 mph - N/A   Clear
11:13 PM 69.8 °F 60.8 °F 73% 29.98 in 10.0 mi South 12.7 mph - N/A   Clear
11:33 PM 69.8 °F 60.8 °F 73% 29.98 in 10.0 mi South 11.5 mph 17.3 mph N/A   Clear
11:54 PM 69.8 °F 59.0 °F 68% 29.98 in 10.0 mi South 9.2 mph - N/A   Clear